User: anonymous   Login
Location: Langangen
(59.1000°N, 9.8000°E)
Time: 09:27:15
(UTC+01:00)
Language:

Iridium 60 - Orbit

View from above orbital plane
View from above orbital plane
View from above satellite
View from above satellite

Ground track
Ground track

The orbit data is extracted from the following two-line orbital elements,

1 25276U 98019E   16037.36083287  .00000292  00000-0  97129-4 0  9998
2 25276  86.3996 134.7275 0002141  99.5654 260.5784 14.34221360934857
Epoch (UTC): 06 February 2016 08:39:35
Eccentricity: 0.0002141
inclination: 86.3996°
perigee height: 776 km
apogee height: 779 km
right ascension of ascending node: 134.7275°
argument of perigee: 99.5654°
revolutions per day: 14.34221360
mean anomaly at epoch: 260.5784°
orbit number at epoch: 93485

The dashed part of the orbit path shows where the satellite is in the earth's shadow,  

DLR